#timestamp,LO_Frequency,Hit 
1501257615.1,286046995.5,N
1501257635.9,286046997.6,N
1501257655.7,286046995.3,N
1501257675.5,286046996.5,N
1501257695.4,286046998.6,N
1501257715.2,286047000.4,N
1501257735.0,286047003.3,N
1501257735.9,286047003.3,N
1501257755.8,286047002.3,N
1501257775.6,286047003.1,N
1501257795.5,286047002.6,N
1501257815.3,286047004.0,N
1501257835.1,286046999.7,N
1501257855.9,286047003.8,N
1501257875.7,286047001.4,N
1501257895.5,286047005.5,N
1501257915.4,286047006.4,N
1501257935.2,286047009.0,N
1501257955.1,286047006.4,N
1501257956.0,286047006.4,N
1501257975.8,286047011.6,P
1501257995.6,286047009.1,N
1501258015.5,286047005.9,N
1501258035.3,286046998.8,N
1501258055.2,286046995.7,N
1501258075.9,286046993.9,N
1501258095.7,286046991.3,N
1501258115.6,286046987.6,N
1501258135.4,286046986.6,N
1501258155.2,286046986.7,N
1501258175.1,286046985.4,N
1501258176.0,286046985.4,N
1501258195.8,286046988.2,N
1501258215.7,286046986.6,N
1501258235.5,286046984.8,N
1501258255.3,286046982.8,N
1501258275.2,286046983.4,N
1501258295.0,286046981.7,N
1501258295.9,286046981.7,N
1501258315.7,286046979.3,N
1501258335.6,286046977.3,N
1501258355.4,286046977.5,N
1501258375.3,286046977.9,N
1501258395.1,286046977.8,N
1501258396.0,286046977.8,N
1501258415.8,286046978.8,N
1501258435.7,286046976.4,N
1501258455.5,286046974.5,N
1501258475.0,286046974.8,N
1501258475.9,286046974.8,P
1501258495.8,286046988.7,N
1501258515.6,286046990.0,N
1501258535.4,286046990.0,N
1501258555.3,286046989.5,N
1501258575.1,286046987.1,N
1501258595.8,286046987.3,N
1501258615.7,286046986.9,N
1501258635.5,286046987.9,N
1501258655.4,286046987.3,P
1501258675.2,286047002.8,P
1501258695.0,286047002.7,N
1501258695.9,286047002.7,N
1501258715.8,286047002.7,N
1501258735.6,286047000.0,N
1501258755.4,286047001.9,N
1501258775.3,286047000.4,N
1501258795.1,286047000.0,N
1501258815.9,286047002.7,N
1501258835.7,286046999.7,N
1501258855.5,286046999.8,N
1501258875.4,286047000.5,N
1501258895.2,286047000.0,N
1501258915.0,286047000.1,N
1501258915.9,286047000.1,N
1501258935.8,286047002.5,N
1501258955.6,286047002.7,N
1501258975.5,286047002.0,N
1501258995.3,286047002.3,N
1501259015.1,286047002.0,N
1501259035.9,286047000.1,N
1501259055.7,286046999.8,N
1501259075.5,286046999.8,N
1501259095.4,286046999.9,N
1501259115.2,286047002.0,N
1501259135.1,286047002.6,N
1501259136.0,286047002.6,N
1501259155.8,286047002.6,N
1501259175.6,286047000.2,N
1501259195.5,286047000.2,N
1501259215.3,286047000.4,N
1501259235.1,286047000.3,N
1501259255.9,286047000.2,N
1501259275.7,286046999.7,N
1501259295.6,286047003.9,P
1501259315.4,286047004.3,N
1501259335.2,286047003.5,N
1501259355.1,286047001.8,N
1501259356.0,286047001.8,N
1501259375.8,286047002.5,N
1501259395.7,286047004.4,P
1501259415.5,286047001.0,N
1501259435.3,286047000.6,N
1501259455.2,286046999.4,N
1501259475.0,286046998.9,N
1501259475.9,286046998.9,N
1501259495.8,286046998.4,N
1501259515.6,286046998.6,N
1501259535.4,286046998.3,N
1501259555.3,286047000.5,N
1501259575.1,286047001.1,N
1501259595.8,286047001.2,N
1501259615.7,286046998.2,N
1501259635.5,286046999.4,N
1501259655.4,286046998.3,N
1501259675.2,286047000.8,N
1501259695.0,286046999.1,N
1501259695.9,286046999.1,N
1501259715.8,286046999.6,N
1501259735.6,286046999.6,N
1501259755.4,286046998.8,N
1501259775.3,286047001.1,N
1501259795.1,286047001.0,N
1501259815.9,286047000.5,N
1501259835.7,286047001.0,N
1501259855.5,286047000.2,N
1501259875.4,286047001.0,N
1501259895.2,286047000.4,N
1501259915.0,286046999.9,N
1501259915.9,286046999.9,N
1501259935.8,286047002.1,N
1501259955.6,286047002.2,N
1501259975.5,286047002.3,N
1501259995.3,286047002.5,N
1501260015.1,286047002.2,N
1501260035.9,286047002.2,N
1501260055.7,286047001.5,N
1501260075.5,286047002.2,N
1501260095.4,286047000.1,N
1501260115.2,286046999.9,N
1501260135.1,286047000.0,N
1501260136.0,286047000.0,N
1501260155.8,286047001.6,N
1501260175.6,286047002.2,P
1501260195.5,286047001.9,N
1501260215.3,286047002.2,P
1501260235.2,286047002.1,P
1501260255.0,286047000.9,P
1501260255.9,286047000.9,N
1501260275.7,286047000.5,N
1501260295.6,286047000.3,N
1501260315.4,28601501260355.3,286046998.2,P
1501260375.1,286047000.4,N
1501260395.9,286047000.6,N
1501260415.7,286047002.8,N
1501260435.5,286047001.4,N
1501260455.4,286047002.3,N
1501260475.2,286047002.0,N
1501260495.1,286047004.4,P
1501260496.0,286047004.4,N
1501260515.8,286047000.2,N
1501260535.6,286047002.3,N
1501260555.5,286047002.6,N
1501260575.3,286047000.0,N
1501260595.1,286047002.7,N
1501260615.9,286047001.9,N
1501260635.7,286047001.8,N
1501260655.6,286047002.1,N
1501260675.4,286047004.4,P
1501260695.2,286046999.8,N
1501260715.1,286046998.1,N
1501260716.0,286046998.1,N
1501260735.8,286047000.3,N
1501260755.7,286047001.0,N
1501260775.5,286046999.2,N
1501260795.3,286046998.3,N
1501260815.2,286046998.5,N
1501260835.0,286047000.0,N
1501260835.9,286047000.0,N
1501260855.7,286046998.8,N
1501260875.6,286046998.9,N
1501260895.4,286047000.8,N
1501260915.3,286046998.3,N
1501260935.1,286046998.3,N
1501260936.0,286046998.3,N
1501260955.8,286046999.2,N
1501260975.7,286047000.3,N
1501260995.5,286047003.4,N
1501261015.4,286047005.8,P
1501261035.2,286047007.2,N
1501261055.0,286047007.4,N
1501261055.9,286047007.4,N
1501261075.8,286047004.8,N
1501261095.6,286047005.9,N
1501261115.4,286047007.1,N
1501261135.3,286047004.9,N
1501261155.1,286047005.4,N
1501261175.9,286047002.9,N
1501261195.7,286047003.1,N
